Le nostre stazioni meteo in Italia

Pubblicità
Il mio iltempo24.it
Writtle, Gran Bretagna (99127): Temperatura & dewpoint: 29.06.2020 23:00:00 - 05.07.2020 23:00:00 (BST)Writtle, Gran Bretagna (99127): Temperatura -20cm: 29.06.2020 23:00:00 - 05.07.2020 23:00:00 (BST)Writtle, Gran Bretagna (99127): precipitazioni: 29.06.2020 23:00:00 - 05.07.2020 23:00:00 (BST)
Data & Tempo tt [°C] td [°C] tt -20cm [°C] rr [mm]
05.07.2020 23:00:00 13,9 7,2 - 0,0
05.07.2020 22:00:00 14,6 6,6 - 0,0
05.07.2020 21:00:00 15,8 5,4 - 0,0
05.07.2020 20:00:00 17,4 5,6 - 0,0
05.07.2020 19:00:00 18,4 5,1 - 0,0
05.07.2020 18:00:00 18,8 5,9 - 0,0
05.07.2020 17:00:00 19,5 6,1 - 0,0
05.07.2020 16:00:00 20,4 6,8 - 0,0
05.07.2020 15:00:00 20,8 7,2 - 0,0
05.07.2020 14:00:00 21,6 8,5 - 0,0
05.07.2020 13:00:00 20,5 8,0 - 0,0
05.07.2020 12:00:00 20,7 9,7 - 0,0
05.07.2020 11:00:00 19,6 9,5 - 0,0
05.07.2020 10:00:00 18,5 10,5 16,7 0,0
05.07.2020 09:00:00 19,0 13,4 - 0,0
05.07.2020 08:00:00 17,5 15,1 - 0,0
05.07.2020 07:00:00 17,4 14,2 - 0,0
05.07.2020 06:00:00 17,5 14,3 - 0,0
05.07.2020 05:00:00 17,3 14,6 - 0,0
05.07.2020 04:00:00 17,2 14,5 - 0,0
05.07.2020 03:00:00 16,9 14,2 - 0,0
05.07.2020 02:00:00 17,3 14,3 - 0,0
05.07.2020 01:00:00 17,8 14,6 - 0,0
05.07.2020 00:00:00 17,7 15,0 - 0,0
04.07.2020 23:00:00 17,7 15,4 - 0,0
04.07.2020 22:00:00 17,4 15,6 - 0,0
04.07.2020 21:00:00 17,8 15,4 - 0,0
04.07.2020 20:00:00 18,8 15,2 - 0,0
04.07.2020 19:00:00 18,5 15,4 - 0,0
04.07.2020 18:00:00 19,2 15,4 - 0,0
04.07.2020 17:00:00 20,6 15,7 - 0,0
04.07.2020 16:00:00 20,5 15,2 - 0,0
04.07.2020 15:00:00 20,3 15,3 - 0,0
04.07.2020 14:00:00 20,2 14,9 - 0,0
04.07.2020 13:00:00 20,2 15,5 - 0,0
04.07.2020 12:00:00 19,5 14,6 - 0,0
04.07.2020 11:00:00 19,3 14,7 - 0,0
04.07.2020 10:00:00 18,9 15,1 16,7 0,0
04.07.2020 09:00:00 17,8 14,8 - 0,0
04.07.2020 08:00:00 17,2 14,6 - 0,0
04.07.2020 07:00:00 16,5 14,3 - 0,0
04.07.2020 06:00:00 15,7 14,0 - 0,0
04.07.2020 05:00:00 15,1 13,8 - 0,0
04.07.2020 04:00:00 15,5 13,4 - 0,0
04.07.2020 03:00:00 15,6 13,2 - 0,0
04.07.2020 02:00:00 15,5 12,9 - 0,0
04.07.2020 01:00:00 15,4 12,6 - 0,0
04.07.2020 00:00:00 15,1 12,5 - 0,0
03.07.2020 23:00:00 14,8 12,4 - 0,0
03.07.2020 22:00:00 14,5 12,3 - 0,2
03.07.2020 21:00:00 14,9 11,7 - 0,2
03.07.2020 20:00:00 17,2 10,3 - 0,0
03.07.2020 19:00:00 18,6 10,2 - 0,0
03.07.2020 18:00:00 18,9 9,8 - 0,0
03.07.2020 17:00:00 19,1 9,8 - 0,0
03.07.2020 16:00:00 20,2 10,8 - 0,0
03.07.2020 15:00:00 22,2 11,6 - 0,0
03.07.2020 14:00:00 20,7 9,8 - 0,0
03.07.2020 13:00:00 19,8 10,2 - 0,0
03.07.2020 12:00:00 19,6 10,2 - 0,0
03.07.2020 11:00:00 19,4 10,8 - 0,0
03.07.2020 10:00:00 18,2 11,5 16,5 0,0
03.07.2020 09:00:00 15,1 10,9 - 0,0
03.07.2020 08:00:00 14,2 11,5 - 0,0
03.07.2020 07:00:00 13,9 11,8 - 0,0
03.07.2020 06:00:00 12,6 12,0 - 0,2
03.07.2020 05:00:00 11,4 10,5 - 0,0
03.07.2020 04:00:00 11,8 11,4 - 0,0
03.07.2020 03:00:00 12,3 12,0 - 0,0
03.07.2020 02:00:00 13,0 12,6 - 0,0
03.07.2020 01:00:00 13,2 12,7 - 0,0
03.07.2020 00:00:00 13,4 12,8 - 0,0
02.07.2020 23:00:00 14,5 13,7 - 0,0
02.07.2020 22:00:00 15,5 14,6 - 0,0
02.07.2020 21:00:00 15,6 13,9 - 0,0
02.07.2020 20:00:00 17,7 13,9 - 0,2
02.07.2020 19:00:00 16,0 14,4 - 0,6
02.07.2020 18:00:00 17,4 14,8 - 0,4
02.07.2020 17:00:00 16,5 13,9 - 0,2
02.07.2020 16:00:00 18,4 15,3 - 0,6
02.07.2020 15:00:00 18,2 13,1 - 0,2
02.07.2020 14:00:00 17,2 13,3 - 0,0
02.07.2020 13:00:00 17,3 12,6 - 0,0
02.07.2020 12:00:00 18,2 10,8 - 0,0
02.07.2020 11:00:00 17,5 11,6 - 0,0
02.07.2020 10:00:00 17,2 10,3 16,7 0,0
02.07.2020 09:00:00 16,4 10,9 - 0,0
02.07.2020 08:00:00 15,8 10,6 - 0,0
02.07.2020 07:00:00 13,8 10,5 - 0,0
02.07.2020 06:00:00 12,1 9,8 - 0,0
02.07.2020 05:00:00 11,7 9,4 - 0,0
02.07.2020 04:00:00 12,1 8,7 - 0,0
02.07.2020 03:00:00 13,0 8,6 - 0,0
02.07.2020 02:00:00 14,5 9,2 - 0,0
02.07.2020 01:00:00 15,2 12,1 - 0,0
02.07.2020 00:00:00 15,9 11,7 - 0,0
01.07.2020 23:00:00 16,1 13,0 - 0,0
01.07.2020 22:00:00 16,4 12,7 - 0,0
01.07.2020 21:00:00 17,8 12,2 - 0,0
01.07.2020 20:00:00 18,7 12,0 - 0,0
01.07.2020 19:00:00 19,3 13,5 - 0,0
01.07.2020 18:00:00 19,5 12,9 - 0,0
01.07.2020 17:00:00 19,8 13,3 - 0,0
01.07.2020 16:00:00 20,2 14,1 - 0,6
01.07.2020 15:00:00 20,7 11,4 - 0,0
01.07.2020 14:00:00 21,1 11,3 - 0,0
01.07.2020 13:00:00 20,5 11,2 - 0,0
01.07.2020 12:00:00 19,3 11,4 - 0,0
01.07.2020 11:00:00 20,5 10,7 - 0,0
01.07.2020 10:00:00 19,3 11,0 16,7 0,0
01.07.2020 09:00:00 17,8 10,8 - 0,0
01.07.2020 08:00:00 17,1 12,1 - 0,0
01.07.2020 07:00:00 15,9 12,4 - 0,0
01.07.2020 06:00:00 15,1 12,1 - 0,0
01.07.2020 05:00:00 15,4 12,1 - 0,0
01.07.2020 04:00:00 15,9 12,8 - 0,0
01.07.2020 03:00:00 16,2 13,4 - 0,0
01.07.2020 02:00:00 16,7 12,9 - 0,0
01.07.2020 01:00:00 16,9 13,7 - 0,0
01.07.2020 00:00:00 16,7 14,6 - 0,0
30.06.2020 23:00:00 16,7 14,3 - 0,0
30.06.2020 22:00:00 16,7 14,7 - 0,0
30.06.2020 21:00:00 17,0 14,1 - 0,0
30.06.2020 20:00:00 17,9 14,2 - 0,0
30.06.2020 19:00:00 17,7 14,0 - 0,0
30.06.2020 18:00:00 17,7 13,8 - 0,0
30.06.2020 17:00:00 19,0 14,3 - 0,0
30.06.2020 16:00:00 17,6 14,0 - 0,2
30.06.2020 15:00:00 17,1 13,1 - 0,0
30.06.2020 14:00:00 17,3 12,3 - 0,0
30.06.2020 13:00:00 16,1 12,7 - 0,0
30.06.2020 12:00:00 14,5 12,1 - 0,2
30.06.2020 11:00:00 15,6 11,0 - 0,0
30.06.2020 10:00:00 15,6 11,1 16,7 0,0
30.06.2020 09:00:00 14,5 10,8 - 0,0
30.06.2020 08:00:00 14,3 9,6 - 0,0
30.06.2020 07:00:00 13,8 8,8 - 0,0
30.06.2020 06:00:00 13,7 8,7 - 0,0
30.06.2020 05:00:00 13,8 8,3 - 0,0
30.06.2020 04:00:00 13,7 8,1 - 0,0
30.06.2020 03:00:00 14,1 7,5 - 0,0
30.06.2020 02:00:00 14,3 7,2 - 0,0
30.06.2020 01:00:00 14,4 7,8 - 0,0
30.06.2020 00:00:00 14,3 8,1 - 0,0
29.06.2020 23:00:00 14,2 7,5 - 0,0

tt = Temperatura
td = dewpoint
tt -20cm = Temperatura -20cm
rr = precipitazioni

Stazioni seguenti

WeatherPro
AMSI
MeteoEarth